Time,TemperatureF,DewpointF,PressureIn,WindDirection,WindDirectionDegrees,WindSpeedMPH,WindSpeedGustMPH,Humidity,HourlyPrecipIn,Conditions,Clouds,dailyrainin,SoftwareType,DateUTC
2013-07-02 00:09:00,63.9,57.0,30.00,NNE,24,5.0,8.0,77,0.00,,,0.00,weatherlink.com 1.10,2013-07-02 05:09:00,
2013-07-02 00:24:00,64.1,57.0,30.00,NNE,31,6.0,9.0,77,0.00,,,0.00,weatherlink.com 1.10,2013-07-02 05:24:00,
2013-07-02 00:39:00,64.0,57.0,30.00,NNE,30,2.0,8.0,78,0.00,,,0.00,weatherlink.com 1.10,2013-07-02 05:39:00,
2013-07-02 00:54:00,63.6,57.0,29.99,NNE,29,5.0,6.0,80,0.00,,,0.00,weatherlink.com 1.10,2013-07-02 05:54:00,
2013-07-02 01:09:00,63.5,57.0,29.99,NNE,26,6.0,7.0,80,0.00,,,0.00,weatherlink.com 1.10,2013-07-02 06:09:00,
2013-07-02 01:24:00,63.7,57.0,29.99,NNE,23,3.0,9.0,79,0.00,,,0.00,weatherlink.com 1.10,2013-07-02 06:24:00,
2013-07-02 01:39:00,64.0,57.0,29.99,NNE,24,9.0,11.0,77,0.00,,,0.00,weatherlink.com 1.10,2013-07-02 06:39:00,
2013-07-02 01:54:00,63.8,57.0,29.99,NNE,25,6.0,11.0,78,0.00,,,0.00,weatherlink.com 1.10,2013-07-02 06:54:00,
2013-07-02 02:09:00,63.6,57.0,29.98,NNE,23,3.0,9.0,78,0.00,,,0.00,weatherlink.com 1.10,2013-07-02 07:09:00,
2013-07-02 02:24:00,63.2,57.0,29.98,NNE,23,6.0,11.0,79,0.00,,,0.00,weatherlink.com 1.10,2013-07-02 07:24:00,
2013-07-02 02:39:00,63.1,57.0,29.98,NNE,12,5.0,9.0,79,0.00,,,0.00,weatherlink.com 1.10,2013-07-02 07:39:00,
2013-07-02 02:54:00,62.8,56.0,29.98,NNE,20,4.0,11.0,79,0.00,,,0.00,weatherlink.com 1.10,2013-07-02 07:54:00,
2013-07-02 03:10:00,62.7,56.0,29.97,NNE,25,9.0,11.0,79,0.00,,,0.00,weatherlink.com 1.10,2013-07-02 08:10:00,
2013-07-02 03:25:00,62.7,56.0,29.97,NNE,33,6.0,10.0,79,0.00,,,0.00,weatherlink.com 1.10,2013-07-02 08:25:00,
2013-07-02 03:40:00,62.6,56.0,29.97,NNE,17,5.0,10.0,80,0.00,,,0.00,weatherlink.com 1.10,2013-07-02 08:40:00,
2013-07-02 03:55:00,62.2,56.0,29.97,NNE,15,6.0,8.0,81,0.00,,,0.00,weatherlink.com 1.10,2013-07-02 08:55:00,
2013-07-02 04:10:00,61.9,57.0,29.98,NNE,23,6.0,9.0,83,0.00,,,0.00,weatherlink.com 1.10,2013-07-02 09:10:00,
2013-07-02 04:25:00,61.7,56.0,29.98,NNE,26,4.0,9.0,82,0.00,,,0.00,weatherlink.com 1.10,2013-07-02 09:25:00,
2013-07-02 04:40:00,61.8,56.0,29.98,NNE,28,4.0,9.0,81,0.00,,,0.00,weatherlink.com 1.10,2013-07-02 09:40:00,
2013-07-02 04:55:00,61.7,56.0,29.98,NNE,22,5.0,8.0,82,0.00,,,0.00,weatherlink.com 1.10,2013-07-02 09:55:00,
2013-07-02 05:10:00,61.9,56.0,29.98,NNE,30,3.0,9.0,81,0.00,,,0.00,weatherlink.com 1.10,2013-07-02 10:10:00,
2013-07-02 05:25:00,62.1,56.0,29.99,NNE,22,6.0,9.0,80,0.00,,,0.00,weatherlink.com 1.10,2013-07-02 10:25:00,
2013-07-02 05:40:00,62.1,56.0,29.99,NNE,17,4.0,7.0,81,0.00,,,0.00,weatherlink.com 1.10,2013-07-02 10:40:00,
2013-07-02 05:55:00,62.0,56.0,30.00,North,5,2.0,6.0,82,0.00,,,0.00,weatherlink.com 1.10,2013-07-02 10:55:00,
2013-07-02 06:10:00,62.0,57.0,30.00,North,11,7.0,8.0,83,0.00,,,0.00,weatherlink.com 1.10,2013-07-02 11:10:00,
2013-07-02 06:25:00,62.0,57.0,30.00,NNE,25,4.0,9.0,83,0.00,,,0.00,weatherlink.com 1.10,2013-07-02 11:25:00,
2013-07-02 06:40:00,62.4,57.0,30.00,NE,42,8.0,11.0,82,0.00,,,0.00,weatherlink.com 1.10,2013-07-02 11:40:00,
2013-07-02 06:55:00,62.5,57.0,30.00,NE,36,4.0,12.0,82,0.00,,,0.00,weatherlink.com 1.10,2013-07-02 11:55:00,
2013-07-02 07:10:00,62.4,57.0,30.00,NNE,20,3.0,8.0,83,0.00,,,0.00,weatherlink.com 1.10,2013-07-02 12:10:00,
2013-07-02 07:25:00,62.4,57.0,30.00,North,5,5.0,10.0,83,0.00,,,0.00,weatherlink.com 1.10,2013-07-02 12:25:00,
2013-07-02 07:40:00,62.7,57.0,30.00,NNE,24,6.0,12.0,82,0.00,,,0.00,weatherlink.com 1.10,2013-07-02 12:40:00,
2013-07-02 07:55:00,63.2,57.0,30.01,NNE,28,7.0,15.0,80,0.00,,,0.00,weatherlink.com 1.10,2013-07-02 12:55:00,
2013-07-02 08:10:00,63.9,57.0,30.01,NNE,13,12.0,16.0,78,0.00,,,0.00,weatherlink.com 1.10,2013-07-02 13:10:00,
2013-07-02 08:25:00,64.2,57.0,30.01,North,9,10.0,16.0,77,0.00,,,0.00,weatherlink.com 1.10,2013-07-02 13:25:00,
2013-07-02 08:40:00,64.6,57.0,30.01,NE,41,11.0,14.0,76,0.00,,,0.00,weatherlink.com 1.10,2013-07-02 13:40:00,
2013-07-02 08:55:00,65.0,57.0,30.01,NNE,17,8.0,18.0,75,0.00,,,0.00,weatherlink.com 1.10,2013-07-02 13:55:00,
2013-07-02 09:10:00,64.9,57.0,30.01,NNE,21,10.0,16.0,75,0.00,,,0.00,weatherlink.com 1.10,2013-07-02 14:10:00,
2013-07-02 09:25:00,64.8,56.0,30.01,North,355,16.0,17.0,74,0.00,,,0.00,weatherlink.com 1.10,2013-07-02 14:25:00,
2013-07-02 09:40:00,65.3,56.0,30.01,NNE,14,11.0,17.0,73,0.00,,,0.00,weatherlink.com 1.10,2013-07-02 14:40:00,
2013-07-02 09:55:00,65.6,57.0,30.02,NNE,28,6.0,16.0,73,0.00,,,0.00,weatherlink.com 1.10,2013-07-02 14:55:00,
2013-07-02 10:10:00,65.4,57.0,30.02,North,11,6.0,16.0,74,0.00,,,0.00,weatherlink.com 1.10,2013-07-02 15:10:00,
2013-07-02 10:20:00,-999.0,-99.9,0.00,North,-999,-999.0,-999.0,-999,0.00,,,0.00,weatherlink.com 1.10,2013-07-02 15:20:00,
2013-07-02 10:35:00,66.0,58.0,30.02,NNE,24,10.0,17.0,74,0.00,,,0.00,weatherlink.com 1.10,2013-07-02 15:35:00,
2013-07-02 10:50:00,66.6,58.0,30.02,NNE,12,8.0,17.0,75,0.00,,,0.00,weatherlink.com 1.10,2013-07-02 15:50:00,
2013-07-02 11:05:00,66.1,58.0,30.02,NE,40,7.0,17.0,75,0.00,,,0.00,weatherlink.com 1.10,2013-07-02 16:05:00,
2013-07-02 11:20:00,66.5,58.0,30.02,North,5,12.0,18.0,75,0.00,,,0.00,weatherlink.com 1.10,2013-07-02 16:20:00,
2013-07-02 11:35:00,67.0,59.0,30.02,NE,54,8.0,16.0,75,0.00,,,0.00,weatherlink.com 1.10,2013-07-02 16:35:00,
2013-07-02 11:50:00,66.7,59.0,30.02,NNE,28,15.0,20.0,75,0.00,,,0.00,weatherlink.com 1.10,2013-07-02 16:50:00,
2013-07-02 12:05:00,66.3,59.0,30.02,NE,41,10.0,18.0,76,0.00,,,0.00,weatherlink.com 1.10,2013-07-02 17:05:00,
2013-07-02 12:21:00,65.9,59.0,30.02,NNE,27,10.0,18.0,77,0.00,,,0.00,weatherlink.com 1.10,2013-07-02 17:21:00,
2013-07-02 12:36:00,65.1,59.0,30.02,North,5,12.0,18.0,81,0.00,,,0.00,weatherlink.com 1.10,2013-07-02 17:36:00,
2013-07-02 12:52:00,65.2,60.0,30.03,NE,34,7.0,17.0,82,0.00,,,0.00,weatherlink.com 1.10,2013-07-02 17:52:00,
2013-07-02 13:06:00,65.8,59.0,30.02,NE,51,6.0,16.0,79,0.00,,,0.00,weatherlink.com 1.10,2013-07-02 18:06:00,
2013-07-02 13:22:00,66.7,60.0,30.02,NNE,13,8.0,17.0,78,0.00,,,0.00,weatherlink.com 1.10,2013-07-02 18:22:00,
2013-07-02 13:36:00,66.7,60.0,30.02,NNE,32,7.0,15.0,79,0.00,,,0.00,weatherlink.com 1.10,2013-07-02 18:36:00,
2013-07-02 13:51:00,67.6,61.0,30.02,NNW,335,7.0,14.0,78,0.00,,,0.00,weatherlink.com 1.10,2013-07-02 18:51:00,
2013-07-02 14:06:00,67.9,60.0,30.01,NNW,346,10.0,17.0,76,0.00,,,0.00,weatherlink.com 1.10,2013-07-02 19:06:00,
2013-07-02 14:21:00,68.9,60.0,30.01,NNE,21,11.0,17.0,73,0.00,,,0.00,weatherlink.com 1.10,2013-07-02 19:21:00,
2013-07-02 14:36:00,69.2,59.0,30.01,NNE,28,8.0,17.0,70,0.00,,,0.00,weatherlink.com 1.10,2013-07-02 19:36:00,
2013-07-02 14:51:00,69.3,59.0,30.01,North,5,10.0,18.0,70,0.00,,,0.00,weatherlink.com 1.10,2013-07-02 19:51:00,
2013-07-02 15:06:00,69.2,59.0,30.00,NE,34,10.0,20.0,69,0.00,,,0.00,weatherlink.com 1.10,2013-07-02 20:06:00,
2013-07-02 15:21:00,69.2,59.0,30.00,NNE,32,5.0,18.0,70,0.00,,,0.00,weatherlink.com 1.10,2013-07-02 20:21:00,
2013-07-02 15:36:00,69.3,58.0,30.00,North,5,13.0,22.0,67,0.00,,,0.00,weatherlink.com 1.10,2013-07-02 20:36:00,
2013-07-02 15:51:00,69.6,58.0,30.00,NNW,347,13.0,18.0,67,0.00,,,0.00,weatherlink.com 1.10,2013-07-02 20:51:00,
2013-07-02 16:06:00,68.8,58.0,30.00,NNW,345,6.0,20.0,69,0.00,,,0.00,weatherlink.com 1.10,2013-07-02 21:06:00,
2013-07-02 16:21:00,68.9,58.0,30.00,North,5,14.0,18.0,68,0.00,,,0.00,weatherlink.com 1.10,2013-07-02 21:21:00,
2013-07-02 16:36:00,68.7,58.0,30.00,NE,39,4.0,15.0,69,0.00,,,0.00,weatherlink.com 1.10,2013-07-02 21:36:00,
2013-07-02 16:51:00,68.7,58.0,30.00,NNE,22,9.0,18.0,68,0.00,,,0.00,weatherlink.com 1.10,2013-07-02 21:51:00,
2013-07-02 17:06:00,68.5,58.0,30.00,North,9,10.0,18.0,70,0.00,,,0.00,weatherlink.com 1.10,2013-07-02 22:06:00,
2013-07-02 17:21:00,68.4,59.0,30.00,NNE,26,11.0,15.0,71,0.00,,,0.00,weatherlink.com 1.10,2013-07-02 22:21:00,
2013-07-02 17:36:00,68.1,59.0,30.00,NNE,23,6.0,13.0,73,0.00,,,0.00,weatherlink.com 1.10,2013-07-02 22:36:00,
2013-07-02 17:51:00,67.7,59.0,30.00,NNE,13,7.0,12.0,73,0.00,,,0.00,weatherlink.com 1.10,2013-07-02 22:51:00,
2013-07-02 18:06:00,67.2,58.0,30.00,NNE,19,10.0,17.0,73,0.00,,,0.00,weatherlink.com 1.10,2013-07-02 23:06:00,
2013-07-02 18:21:00,66.8,58.0,30.00,NNE,29,8.0,14.0,74,0.00,,,0.00,weatherlink.com 1.10,2013-07-02 23:21:00,
2013-07-02 18:36:00,66.4,58.0,30.00,NNE,12,12.0,18.0,74,0.00,,,0.00,weatherlink.com 1.10,2013-07-02 23:36:00,
2013-07-02 18:51:00,66.2,58.0,30.00,NE,54,7.0,14.0,76,0.00,,,0.00,weatherlink.com 1.10,2013-07-02 23:51:00,
2013-07-02 19:06:00,65.9,59.0,30.01,North,5,6.0,12.0,77,0.00,,,0.00,weatherlink.com 1.10,2013-07-03 00:06:00,
2013-07-02 19:21:00,65.7,58.0,30.01,NNE,28,6.0,14.0,77,0.00,,,0.00,weatherlink.com 1.10,2013-07-03 00:21:00,
2013-07-02 19:36:00,65.5,58.0,30.01,NNE,32,4.0,12.0,78,0.00,,,0.00,weatherlink.com 1.10,2013-07-03 00:36:00,
2013-07-02 19:51:00,65.2,59.0,30.01,NNE,24,8.0,12.0,80,0.00,,,0.00,weatherlink.com 1.10,2013-07-03 00:51:00,
2013-07-02 20:06:00,64.5,59.0,30.00,NNE,29,6.0,10.0,81,0.00,,,0.00,weatherlink.com 1.10,2013-07-03 01:06:00,
2013-07-02 20:21:00,63.7,58.0,30.01,NNE,32,1.0,9.0,82,0.00,,,0.00,weatherlink.com 1.10,2013-07-03 01:21:00,
2013-07-02 20:36:00,62.9,58.0,30.01,NNE,33,3.0,6.0,84,0.00,,,0.00,weatherlink.com 1.10,2013-07-03 01:36:00,
2013-07-02 20:51:00,62.1,58.0,30.01,NNE,20,3.0,6.0,86,0.00,,,0.00,weatherlink.com 1.10,2013-07-03 01:51:00,
2013-07-02 21:06:00,61.5,58.0,30.02,NNE,28,1.0,6.0,87,0.00,,,0.00,weatherlink.com 1.10,2013-07-03 02:06:00,
2013-07-02 21:36:00,60.4,57.0,30.03,NE,53,2.0,4.0,89,0.00,,,0.00,weatherlink.com 1.10,2013-07-03 02:36:00,
2013-07-02 21:51:00,60.5,58.0,30.03,NE,49,1.0,5.0,90,0.00,,,0.00,weatherlink.com 1.10,2013-07-03 02:51:00,
2013-07-02 22:06:00,60.8,58.0,30.03,NE,49,3.0,5.0,91,0.00,,,0.00,weatherlink.com 1.10,2013-07-03 03:06:00,
2013-07-02 22:21:00,60.9,58.0,30.03,NE,49,0.0,4.0,91,0.00,,,0.00,weatherlink.com 1.10,2013-07-03 03:21:00,
2013-07-02 22:36:00,61.0,58.0,30.03,NE,49,1.0,4.0,91,0.00,,,0.00,weatherlink.com 1.10,2013-07-03 03:36:00,
2013-07-02 23:06:00,61.3,59.0,30.03,NE,53,4.0,6.0,91,0.00,,,0.00,weatherlink.com 1.10,2013-07-03 04:06:00,
2013-07-02 23:21:00,61.3,59.0,30.03,NE,50,1.0,5.0,91,0.00,,,0.00,weatherlink.com 1.10,2013-07-03 04:21:00,
2013-07-02 23:36:00,61.2,58.0,30.02,NNE,26,4.0,10.0,90,0.00,,,0.00,weatherlink.com 1.10,2013-07-03 04:36:00,
2013-07-02 23:51:00,61.1,59.0,30.02,NE,49,1.0,7.0,91,0.00,,,0.00,weatherlink.com 1.10,2013-07-03 04:51:00,